AEE4ED LGAV-EDDH

Flight info

Callsign AEE4ED
Flight time N/A
Altitude 34000
Route KOR UL53 ELVAS DCT DIMIS DCT ADDER DCT ELBAK DCT UNDER DCT PETAK DCT GUBOK/N0458F360 DCT VEBAL DCT STEIN DCT LANUX DCT LALUK DCT SOGMA M748 RARUP RARUP3P
Aircraft A320/M-SDE3FGHIRWY/LB1

Departure

Time N/A
Airport Athens Eleftherios Venizelos International Airport (LGAV)

Arrival

Time 2026-04-22 15:18
Airport Hamburg Helmut Schmidt Airport (EDDH)
Time Latitude Longitude Altitude Speed Heading
2026-04-22 14:48 51.63179 13.01214 36305 ft 450 kts 330°
2026-04-22 14:49 51.68404 12.95592 36305 ft 451 kts 330°
2026-04-22 14:49 51.73619 12.89958 36305 ft 451 kts 330°
2026-04-22 14:50 51.78800 12.84368 36310 ft 451 kts 330°
2026-04-22 14:50 51.84012 12.78725 36312 ft 451 kts 330°
2026-04-22 14:51 51.89224 12.73058 36315 ft 451 kts 330°
2026-04-22 14:51 51.94435 12.67403 36317 ft 451 kts 330°
2026-04-22 14:52 51.99647 12.61728 36322 ft 451 kts 330°
2026-04-22 14:52 52.04815 12.56047 36327 ft 452 kts 329°
2026-04-22 14:53 52.10015 12.50313 36327 ft 452 kts 329°
2026-04-22 14:53 52.15217 12.44581 36330 ft 452 kts 329°
2026-04-22 14:54 52.20423 12.38832 36331 ft 452 kts 329°
2026-04-22 14:54 52.25624 12.33061 36333 ft 452 kts 329°
2026-04-22 14:55 52.30788 12.27324 36335 ft 452 kts 329°
2026-04-22 14:55 52.35989 12.21534 36332 ft 452 kts 329°
2026-04-22 14:56 52.41183 12.15732 36334 ft 452 kts 329°
2026-04-22 14:56 52.46380 12.09905 36333 ft 452 kts 329°
2026-04-22 14:57 52.51538 12.04109 36328 ft 453 kts 329°
2026-04-22 14:57 52.56722 11.98251 36327 ft 453 kts 329°
2026-04-22 14:58 52.61921 11.92361 36332 ft 454 kts 329°
2026-04-22 14:58 52.67066 11.86314 36333 ft 455 kts 327°
2026-04-22 14:59 52.72085 11.79892 36336 ft 455 kts 326°
2026-04-22 14:59 52.74537 11.76688 36180 ft 446 kts 326°
2026-04-22 14:59 52.76953 11.73545 35841 ft 440 kts 326°
2026-04-22 15:00 52.79352 11.70459 35156 ft 444 kts 327°
2026-04-22 15:00 52.81799 11.67340 34612 ft 444 kts 327°
2026-04-22 15:00 52.84247 11.64234 34104 ft 443 kts 327°
2026-04-22 15:00 52.86689 11.61133 33253 ft 447 kts 327°
2026-04-22 15:01 52.89185 11.57957 32316 ft 454 kts 326°
2026-04-22 15:01 52.91685 11.54763 31703 ft 453 kts 326°
2026-04-22 15:01 52.94183 11.51559 30814 ft 457 kts 326°
2026-04-22 15:01 52.96702 11.48328 29505 ft 459 kts 325°
2026-04-22 15:02 52.99214 11.45095 28289 ft 454 kts 325°
2026-04-22 15:02 53.01680 11.41905 27200 ft 446 kts 324°
2026-04-22 15:02 53.04081 11.38793 26110 ft 445 kts 324°
2026-04-22 15:02 53.06549 11.35600 24859 ft 455 kts 324°
2026-04-22 15:03 53.09082 11.32337 23560 ft 464 kts 324°
2026-04-22 15:03 53.11635 11.29061 22523 ft 462 kts 324°
2026-04-22 15:03 53.14187 11.25889 21667 ft 456 kts 326°
2026-04-22 15:03 53.16759 11.22866 20893 ft 449 kts 327°
2026-04-22 15:04 53.19331 11.19950 20142 ft 443 kts 328°
2026-04-22 15:04 53.21872 11.17105 19394 ft 437 kts 328°
2026-04-22 15:04 53.24378 11.14284 18676 ft 432 kts 327°
2026-04-22 15:04 53.26810 11.11515 17859 ft 426 kts 327°
2026-04-22 15:05 53.29233 11.08721 17037 ft 420 kts 327°
2026-04-22 15:05 53.31562 11.05859 16709 ft 406 kts 324°
2026-04-22 15:05 53.33764 11.03072 16562 ft 389 kts 324°
2026-04-22 15:05 53.35878 11.00381 16434 ft 373 kts 324°
2026-04-22 15:06 53.37224 10.98661 16349 ft 364 kts 324°
2026-04-22 15:06 53.39844 10.95303 16097 ft 347 kts 324°
2026-04-22 15:06 53.41743 10.92860 15706 ft 342 kts 324°
2026-04-22 15:06 53.43622 10.90437 15264 ft 339 kts 324°
2026-04-22 15:07 53.45459 10.88067 14819 ft 336 kts 324°
2026-04-22 15:07 53.47302 10.85688 14404 ft 334 kts 324°
2026-04-22 15:07 53.49136 10.83319 13980 ft 331 kts 324°
2026-04-22 15:07 53.50956 10.80967 13522 ft 329 kts 324°
2026-04-22 15:08 53.52754 10.78643 12833 ft 323 kts 324°
2026-04-22 15:08 53.54524 10.76359 12036 ft 319 kts 324°
2026-04-22 15:08 53.56273 10.74107 11294 ft 315 kts 324°
2026-04-22 15:08 53.57981 10.71918 10871 ft 300 kts 324°
2026-04-22 15:09 53.59590 10.69854 10644 ft 282 kts 324°
2026-04-22 15:09 53.61137 10.67868 10329 ft 279 kts 324°
2026-04-22 15:09 53.62649 10.65926 10011 ft 274 kts 324°
2026-04-22 15:09 53.64151 10.63997 9414 ft 272 kts 324°
2026-04-22 15:10 53.65657 10.62070 8839 ft 269 kts 324°
2026-04-22 15:10 53.67145 10.60173 8266 ft 267 kts 325°
2026-04-22 15:10 53.68623 10.58296 7700 ft 265 kts 324°
2026-04-22 15:10 53.70089 10.56435 7184 ft 263 kts 324°
2026-04-22 15:11 53.71547 10.54588 6634 ft 261 kts 324°
2026-04-22 15:11 53.72993 10.52762 6111 ft 259 kts 324°
2026-04-22 15:11 53.74437 10.50936 5790 ft 259 kts 324°
2026-04-22 15:11 53.75801 10.49073 5645 ft 253 kts 314°
2026-04-22 15:12 53.76618 10.46487 5517 ft 252 kts 283°
2026-04-22 15:12 53.76647 10.43554 5395 ft 250 kts 266°
2026-04-22 15:12 53.76427 10.40701 5232 ft 239 kts 265°
2026-04-22 15:12 53.76187 10.37973 4893 ft 233 kts 264°
2026-04-22 15:13 53.75949 10.35277 4523 ft 230 kts 264°
2026-04-22 15:13 53.75714 10.32593 4080 ft 234 kts 264°
2026-04-22 15:13 53.75485 10.29931 4007 ft 223 kts 264°
2026-04-22 15:13 53.75264 10.27399 4009 ft 213 kts 264°
2026-04-22 15:14 53.75049 10.24988 3987 ft 202 kts 264°
2026-04-22 15:14 53.74691 10.22714 3674 ft 204 kts 246°
2026-04-22 15:14 53.73858 10.20828 3284 ft 200 kts 233°
2026-04-22 15:14 53.72980 10.19053 2997 ft 194 kts 233°
2026-04-22 15:15 53.72150 10.17366 2733 ft 181 kts 234°
2026-04-22 15:15 53.71358 10.15750 2492 ft 177 kts 233°
2026-04-22 15:15 53.70589 10.14181 2253 ft 173 kts 235°
2026-04-22 15:15 53.69820 10.12613 2016 ft 172 kts 234°
2026-04-22 15:16 53.69056 10.11056 1785 ft 173 kts 234°
2026-04-22 15:16 53.68308 10.09537 1557 ft 162 kts 235°
2026-04-22 15:16 53.67618 10.08136 1351 ft 148 kts 235°
2026-04-22 15:16 53.66991 10.06860 1143 ft 142 kts 234°
2026-04-22 15:17 53.66370 10.05599 939 ft 140 kts 235°
2026-04-22 15:17 53.65761 10.04342 761 ft 137 kts 234°
2026-04-22 15:17 53.65173 10.03141 571 ft 135 kts 233°
2026-04-22 15:17 53.64559 10.01896 375 ft 136 kts 234°
2026-04-22 15:18 53.63949 10.00664 210 ft 137 kts 235°
2026-04-22 15:18 53.63342 9.99440 52 ft 128 kts 233°
2026-04-22 15:18 53.62869 9.98487 52 ft 82 kts 230°
2026-04-22 15:18 53.62606 9.97953 52 ft 42 kts 230°
2026-04-22 15:19 53.62446 9.97823 51 ft 26 kts 135°
2026-04-22 15:19 53.62437 9.98018 49 ft 11 kts 75°
2026-04-22 15:19 53.62483 9.98137 51 ft 13 kts 43°
2026-04-22 15:19 53.62548 9.98266 51 ft 16 kts 52°
2026-04-22 15:20 53.62599 9.98372 51 ft 18 kts 51°
2026-04-22 15:20 53.62720 9.98612 51 ft 22 kts 49°
2026-04-22 15:20 53.62821 9.98823 51 ft 24 kts 51°
2026-04-22 15:20 53.62929 9.99039 51 ft 22 kts 50°
2026-04-22 15:21 53.63012 9.99207 51 ft 19 kts 52°
2026-04-22 15:21 53.63087 9.99377 51 ft 16 kts 54°
2026-04-22 15:21 53.63151 9.99528 51 ft 17 kts 52°
2026-04-22 15:21 53.63232 9.99692 51 ft 19 kts 45°
2026-04-22 15:22 53.63332 9.99867 51 ft 22 kts 50°
2026-04-22 15:22 53.63429 10.00067 51 ft 17 kts 58°
2026-04-22 15:22 53.63391 10.00207 51 ft 15 kts 137°
2026-04-22 15:22 53.63288 10.00234 51 ft 16 kts 176°
2026-04-22 15:23 53.63205 10.00268 51 ft 7 kts 97°
2026-04-22 15:23 53.63207 10.00362 51 ft 7 kts 86°
2026-04-22 15:23 53.63207 10.00365 51 ft 0 kts 86°